,,,PA_Meas_PMT16A,,PR_Meas_QMR101_102,,RH_Meas_QMH101,,SR_Meas_QMS101,,TA_Meas_QMH101,,GenWind,,GenWind,
date,time,status,PA,status,PR,status,RH,status,SR,status,TA,status,DirAvg,status,SpdAvg,
2011-11-15, 00:00:04,VALID,999.384,VALID,0,VALID,94.5157,VALID,0,VALID,22.5874,VALID,53,VALID,0.6875,
2011-11-15, 00:01:04,VALID,999.397,VALID,0,VALID,94.4928,VALID,0,VALID,22.6282,VALID,53,VALID,0.436719,
2011-11-15, 00:02:04,VALID,999.39,VALID,0,VALID,94.5157,VALID,0,VALID,22.6282,VALID,53,VALID,0,
2011-11-15, 00:03:04,VALID,999.386,VALID,0,VALID,94.5234,VALID,0,VALID,22.5892,VALID,53,VALID,0,
2011-11-15, 00:04:04,VALID,999.379,VALID,0,VALID,94.5386,VALID,0,VALID,22.5696,VALID,53,VALID,0,
2011-11-15, 00:05:04,VALID,999.352,VALID,0,VALID,94.531,VALID,0.104696,VALID,22.5289,VALID,53,VALID,0,
2011-11-15, 00:06:04,VALID,999.33,VALID,0,VALID,94.5234,VALID,0.104696,VALID,22.5111,VALID,53,VALID,0,
2011-11-15, 00:07:04,VALID,999.324,VALID,0,VALID,94.5386,VALID,0,VALID,22.4704,VALID,53,VALID,0,
2011-11-15, 00:08:04,VALID,999.32,VALID,0,VALID,94.5462,VALID,0,VALID,22.4916,VALID,53,VALID,0,
2011-11-15, 00:09:04,VALID,999.312,VALID,0,VALID,94.531,VALID,0,VALID,22.5111,VALID,53,VALID,0.325781,
2011-11-15, 00:10:04,VALID,999.319,VALID,0,VALID,94.5462,VALID,0.104696,VALID,22.5111,VALID,53,VALID,0.296484,
2011-11-15, 00:11:04,VALID,999.3,VALID,0,VALID,94.5234,VALID,0,VALID,22.5306,VALID,53,VALID,0.253516,
2011-11-15, 00:12:04,VALID,999.274,VALID,0,VALID,94.5234,VALID,0,VALID,22.5696,VALID,53,VALID,0.35625,
2011-11-15, 00:13:04,VALID,999.274,VALID,0,VALID,94.5234,VALID,0,VALID,22.5892,VALID,53,VALID,0.071875,
2011-11-15, 00:14:04,VALID,999.245,VALID,0,VALID,94.5081,VALID,0.104696,VALID,22.5874,VALID,53,VALID,0.180859,
2011-11-15, 00:15:04,VALID,999.239,VALID,0,VALID,94.5157,VALID,0,VALID,22.5892,VALID,53,VALID,0.265234,
2011-11-15, 00:16:04,VALID,999.236,VALID,0,VALID,94.531,VALID,0,VALID,22.5892,VALID,53,VALID,0.395312,
2011-11-15, 00:17:04,VALID,999.236,VALID,0,VALID,94.531,VALID,0.104696,VALID,22.5679,VALID,53,VALID,0.265234,
2011-11-15, 00:18:04,VALID,999.252,VALID,0,VALID,94.5615,VALID,0,VALID,22.5696,VALID,53,VALID,0,
2011-11-15, 00:19:04,VALID,999.25,VALID,0,VALID,94.5462,VALID,0,VALID,22.5484,VALID,53,VALID,0,
2011-11-15, 00:20:04,VALID,999.252,VALID,0,VALID,94.5462,VALID,0,VALID,22.5306,VALID,53,VALID,0,
2011-11-15, 00:21:04,VALID,999.227,VALID,0,VALID,94.5462,VALID,0,VALID,22.5306,VALID,53,VALID,0,
2011-11-15, 00:22:04,VALID,999.176,VALID,0,VALID,94.5462,VALID,0,VALID,22.5306,VALID,53,VALID,0,
2011-11-15, 00:23:04,VALID,999.166,VALID,0,VALID,94.5462,VALID,0,VALID,22.5306,VALID,53,VALID,0,
2011-11-15, 00:24:04,VALID,999.167,VALID,0,VALID,94.5462,VALID,0,VALID,22.5306,VALID,53,VALID,0,
2011-11-15, 00:25:04,VALID,999.155,VALID,0,VALID,94.5462,VALID,0,VALID,22.5306,VALID,53,VALID,0,
2011-11-15, 00:26:04,VALID,999.183,VALID,0,VALID,94.5386,VALID,0,VALID,22.5501,VALID,53,VALID,0,
2011-11-15, 00:27:04,VALID,999.158,VALID,0,VALID,94.5462,VALID,0,VALID,22.5696,VALID,53,VALID,0,
2011-11-15, 00:28:04,VALID,999.101,VALID,0,VALID,94.5539,VALID,0,VALID,22.5892,VALID,53,VALID,0,
2011-11-15, 00:29:04,VALID,999.098,VALID,0,VALID,94.5234,VALID,0,VALID,22.6087,VALID,21,VALID,0.788281,
2011-11-15, 00:30:04,VALID,999.08,VALID,0,VALID,94.5462,VALID,0,VALID,22.6104,VALID,19,VALID,0.782812,
2011-11-15, 00:31:04,VALID,999.072,VALID,0,VALID,94.5539,VALID,0,VALID,22.5696,VALID,17,VALID,0.409766,
2011-11-15, 00:32:04,VALID,999.045,VALID,0,VALID,94.5462,VALID,0,VALID,22.5696,VALID,17,VALID,0.494922,
2011-11-15, 00:33:04,VALID,999.025,VALID,0,VALID,94.5539,VALID,0,VALID,22.5696,VALID,17,VALID,0.640234,
2011-11-15, 00:34:04,VALID,999.012,VALID,0,VALID,94.5539,VALID,0,VALID,22.5306,VALID,7,VALID,0.978516,
2011-11-15, 00:35:04,VALID,998.978,VALID,0,VALID,94.5768,VALID,0,VALID,22.5111,VALID,7,VALID,1.08281,
2011-11-15, 00:36:04,VALID,999.003,VALID,0,VALID,94.5844,VALID,0,VALID,22.4721,VALID,7,VALID,0.965625,
2011-11-15, 00:37:04,VALID,999.04,VALID,0,VALID,94.5844,VALID,0,VALID,22.4526,VALID,7,VALID,0.669141,
2011-11-15, 00:38:04,VALID,999.004,VALID,0,VALID,94.6073,VALID,0,VALID,22.4136,VALID,7,VALID,0.41875,
2011-11-15, 00:39:04,VALID,999.008,VALID,0,VALID,94.5997,VALID,0,VALID,22.3551,VALID,7,VALID,0.35,
2011-11-15, 00:40:04,VALID,999.022,VALID,0,VALID,94.5997,VALID,0,VALID,22.3161,VALID,7,VALID,0.623047,
2011-11-15, 00:41:04,VALID,999.006,VALID,0,VALID,94.5997,VALID,0,VALID,22.2966,VALID,7,VALID,0.802734,
2011-11-15, 00:42:04,VALID,998.955,VALID,0,VALID,94.6302,VALID,0,VALID,22.2966,VALID,16,VALID,0.959375,
2011-11-15, 00:43:04,VALID,998.961,VALID,0,VALID,94.6226,VALID,0,VALID,22.2771,VALID,16,VALID,0.934375,
2011-11-15, 00:44:04,VALID,998.968,VALID,0,VALID,94.5997,VALID,0,VALID,22.2771,VALID,16,VALID,0.747656,
2011-11-15, 00:45:04,VALID,998.989,VALID,0,VALID,94.6149,VALID,0,VALID,22.2771,VALID,16,VALID,0.594531,
2011-11-15, 00:46:04,VALID,998.979,VALID,0,VALID,94.6226,VALID,0,VALID,22.2576,VALID,16,VALID,0.651172,
2011-11-15, 00:47:04,VALID,998.976,VALID,0,VALID,94.6149,VALID,0,VALID,22.2576,VALID,16,VALID,0.705859,
2011-11-15, 00:48:04,VALID,998.964,VALID,0,VALID,94.6226,VALID,0,VALID,22.2381,VALID,16,VALID,0.882422,
2011-11-15, 00:49:04,VALID,998.951,VALID,0,VALID,94.6073,VALID,0,VALID,22.2576,VALID,16,VALID,1.01602,
2011-11-15, 00:50:04,VALID,998.948,VALID,0,VALID,94.6149,VALID,0,VALID,22.2771,VALID,16,VALID,0.999219,
2011-11-15, 00:51:04,VALID,998.918,VALID,0,VALID,94.592,VALID,0,VALID,22.2771,VALID,16,VALID,0.901953,
2011-11-15, 00:52:04,VALID,998.904,VALID,0,VALID,94.6226,VALID,0,VALID,22.2771,VALID,16,VALID,0.604688,
2011-11-15, 00:53:04,VALID,998.856,VALID,0,VALID,94.6149,VALID,0,VALID,22.2771,VALID,16,VALID,0.492578,
2011-11-15, 00:54:04,VALID,998.872,VALID,0,VALID,94.5997,VALID,0,VALID,22.3161,VALID,16,VALID,0.616797,
2011-11-15, 00:55:04,VALID,998.83,VALID,0,VALID,94.5997,VALID,0,VALID,22.3356,VALID,16,VALID,0.746484,
2011-11-15, 00:56:04,VALID,998.827,VALID,0,VALID,94.5768,VALID,0,VALID,22.3551,VALID,96,VALID,0.898828,
2011-11-15, 00:57:04,VALID,998.813,VALID,0,VALID,94.5844,VALID,0,VALID,22.3746,VALID,96,VALID,0.75,
2011-11-15, 00:58:04,VALID,998.799,VALID,0,VALID,94.592,VALID,0,VALID,22.3941,VALID,96,VALID,0.531641,
2011-11-15, 00:59:04,VALID,998.765,VALID,0,VALID,94.5997,VALID,0,VALID,22.3729,VALID,96,VALID,0.616406,
2011-11-15, 01:00:04,VALID,998.747,VALID,0,VALID,94.5768,VALID,0,VALID,22.3941,VALID,96,VALID,0.576172,
2011-11-15, 01:01:04,VALID,998.725,VALID,0,VALID,94.5768,VALID,0,VALID,22.4331,VALID,96,VALID,0.425781,
2011-11-15, 01:02:04,VALID,998.705,VALID,0,VALID,94.5997,VALID,0,VALID,22.4331,VALID,96,VALID,0.252344,
2011-11-15, 01:03:04,VALID,998.68,VALID,0,VALID,94.592,VALID,0,VALID,22.4331,VALID,96,VALID,0.210547,
2011-11-15, 01:04:04,VALID,998.674,VALID,0,VALID,94.5997,VALID,0,VALID,22.4331,VALID,96,VALID,0.155859,
2011-11-15, 01:05:04,VALID,998.678,VALID,0,VALID,94.5997,VALID,0,VALID,22.4331,VALID,96,VALID,0,
2011-11-15, 01:06:04,VALID,998.671,VALID,0,VALID,94.5997,VALID,0,VALID,22.4119,VALID,96,VALID,0,
2011-11-15, 01:07:04,VALID,998.63,VALID,0,VALID,94.6226,VALID,0,VALID,22.4136,VALID,96,VALID,0,
2011-11-15, 01:08:04,VALID,998.636,VALID,0,VALID,94.6226,VALID,0,VALID,22.3729,VALID,96,VALID,0,
2011-11-15, 01:09:04,VALID,998.616,VALID,0,VALID,94.6073,VALID,0,VALID,22.4136,VALID,96,VALID,0.121094,
2011-11-15, 01:10:04,VALID,998.596,VALID,0,VALID,94.6073,VALID,0,VALID,22.4136,VALID,118,VALID,0.908203,
2011-11-15, 01:11:04,VALID,998.567,VALID,0,VALID,94.5844,VALID,0,VALID,22.4509,VALID,130,VALID,0.783203,
2011-11-15, 01:12:04,VALID,998.568,VALID,0,VALID,94.5691,VALID,0,VALID,22.4916,VALID,131,VALID,0.799219,
2011-11-15, 01:13:04,VALID,998.546,VALID,0,VALID,94.592,VALID,0,VALID,22.4916,VALID,131,VALID,0.644141,
2011-11-15, 01:14:04,VALID,998.556,VALID,0,VALID,94.5844,VALID,0,VALID,22.4704,VALID,131,VALID,0.534375,
2011-11-15, 01:15:04,VALID,998.558,VALID,0,VALID,94.5844,VALID,0,VALID,22.5111,VALID,131,VALID,0.548437,
2011-11-15, 01:16:04,VALID,998.542,VALID,0,VALID,94.5768,VALID,0,VALID,22.5306,VALID,150,VALID,0.614453,
2011-11-15, 01:17:04,VALID,998.582,VALID,0,VALID,94.5768,VALID,0,VALID,22.5289,VALID,150,VALID,0.686719,
2011-11-15, 01:18:04,VALID,998.576,VALID,0,VALID,94.5615,VALID,0,VALID,22.5501,VALID,155,VALID,0.973437,
2011-11-15, 01:19:04,VALID,998.604,VALID,0,VALID,94.5768,VALID,0,VALID,22.5892,VALID,160,VALID,1.02148,
2011-11-15, 01:20:04,VALID,998.579,VALID,0,VALID,94.5691,VALID,0,VALID,22.6087,VALID,160,VALID,0.800781,
2011-11-15, 01:21:04,VALID,998.572,VALID,0,VALID,94.5539,VALID,0,VALID,22.6087,VALID,160,VALID,0.85,
2011-11-15, 01:22:04,VALID,998.599,VALID,0,VALID,94.5997,VALID,0,VALID,22.6087,VALID,159,VALID,1.03477,
2011-11-15, 01:23:04,VALID,998.597,VALID,0,VALID,94.5844,VALID,0,VALID,22.6087,VALID,157,VALID,0.884766,
2011-11-15, 01:24:04,VALID,998.603,VALID,0,VALID,94.5768,VALID,0,VALID,22.6087,VALID,157,VALID,0.771094,
2011-11-15, 01:25:04,VALID,998.611,VALID,0,VALID,94.592,VALID,0,VALID,22.6282,VALID,157,VALID,0.607813,
2011-11-15, 01:26:04,VALID,998.623,VALID,0,VALID,94.5844,VALID,0,VALID,22.6069,VALID,157,VALID,0.646094,
2011-11-15, 01:27:04,VALID,998.618,VALID,0,VALID,94.5768,VALID,0,VALID,22.6477,VALID,157,VALID,0.454688,
2011-11-15, 01:28:04,VALID,998.646,VALID,0,VALID,94.5844,VALID,0,VALID,22.6477,VALID,157,VALID,0.538281,
2011-11-15, 01:29:04,VALID,998.646,VALID,0,VALID,94.5768,VALID,0,VALID,22.6477,VALID,157,VALID,0.589063,
2011-11-15, 01:30:04,VALID,998.678,VALID,0,VALID,94.5844,VALID,0,VALID,22.6477,VALID,157,VALID,0.383203,
2011-11-15, 01:31:04,VALID,998.706,VALID,0,VALID,94.5844,VALID,0,VALID,22.6477,VALID,157,VALID,0.380078,
2011-11-15, 01:32:04,VALID,998.705,VALID,0,VALID,94.5844,VALID,0,VALID,22.6477,VALID,157,VALID,0.120703,
2011-11-15, 01:33:04,VALID,998.733,VALID,0,VALID,94.592,VALID,0,VALID,22.6477,VALID,157,VALID,0.196094,
2011-11-15, 01:34:04,VALID,998.738,VALID,0,VALID,94.5844,VALID,0,VALID,22.6477,VALID,157,VALID,0,
2011-11-15, 01:35:04,VALID,998.699,VALID,0,VALID,94.6149,VALID,0,VALID,22.6282,VALID,157,VALID,0,
2011-11-15, 01:36:04,VALID,998.722,VALID,0,VALID,94.5844,VALID,0,VALID,22.6087,VALID,157,VALID,0,
2011-11-15, 01:37:04,VALID,998.739,VALID,0,VALID,94.6149,VALID,0,VALID,22.6087,VALID,157,VALID,0,
2011-11-15, 01:38:04,VALID,998.772,VALID,0,VALID,94.6302,VALID,0,VALID,22.6087,VALID,157,VALID,0,
2011-11-15, 01:39:04,VALID,998.754,VALID,0,VALID,94.6302,VALID,0,VALID,22.5874,VALID,157,VALID,0,
2011-11-15, 01:40:04,VALID,998.741,VALID,0,VALID,94.6149,VALID,0,VALID,22.5892,VALID,157,VALID,0,
2011-11-15, 01:41:04,VALID,998.763,VALID,0,VALID,94.6378,VALID,0,VALID,22.5679,VALID,157,VALID,0,
2011-11-15, 01:42:04,VALID,998.745,VALID,0,VALID,94.6149,VALID,0.104696,VALID,22.5696,VALID,157,VALID,0,
2011-11-15, 01:43:04,VALID,998.727,VALID,0,VALID,94.6149,VALID,0,VALID,22.5679,VALID,157,VALID,0,
2011-11-15, 01:44:04,VALID,998.721,VALID,0,VALID,94.6302,VALID,0,VALID,22.5501,VALID,157,VALID,0,
2011-11-15, 01:45:04,VALID,998.748,VALID,0,VALID,94.6226,VALID,0,VALID,22.5094,VALID,157,VALID,0,
2011-11-15, 01:46:04,VALID,998.714,VALID,0,VALID,94.6226,VALID,0.104696,VALID,22.5501,VALID,157,VALID,0,
2011-11-15, 01:47:04,VALID,998.706,VALID,0,VALID,94.6378,VALID,0,VALID,22.4916,VALID,157,VALID,0.291797,
2011-11-15, 01:48:04,VALID,998.691,VALID,0,VALID,94.6378,VALID,0,VALID,22.4721,VALID,157,VALID,0.501172,
2011-11-15, 01:49:04,VALID,998.699,VALID,0,VALID,94.6454,VALID,0,VALID,22.4526,VALID,157,VALID,0.508984,
2011-11-15, 01:50:05,VALID,998.685,VALID,0,VALID,94.6378,VALID,0,VALID,22.4721,VALID,157,VALID,0.460156,
2011-11-15, 01:51:05,VALID,998.696,VALID,0,VALID,94.6454,VALID,0,VALID,22.4916,VALID,157,VALID,0.372656,
2011-11-15, 01:52:05,VALID,998.701,VALID,0,VALID,94.6454,VALID,0,VALID,22.4916,VALID,157,VALID,0.128125,
2011-11-15, 01:53:05,VALID,998.666,VALID,0,VALID,94.6378,VALID,0,VALID,22.4721,VALID,157,VALID,0.232812,
2011-11-15, 01:54:05,VALID,998.687,VALID,0,VALID,94.6378,VALID,0,VALID,22.4721,VALID,157,VALID,0.126953,
2011-11-15, 01:55:05,VALID,998.674,VALID,0,VALID,94.6226,VALID,0,VALID,22.4721,VALID,157,VALID,0.210938,
2011-11-15, 01:56:05,VALID,998.656,VALID,0,VALID,94.6226,VALID,0,VALID,22.4331,VALID,157,VALID,0.239453,
2011-11-15, 01:57:05,VALID,998.677,VALID,0,VALID,94.6683,VALID,0,VALID,22.3746,VALID,157,VALID,0.197266,
2011-11-15, 01:58:05,VALID,998.659,VALID,0,VALID,94.6836,VALID,0,VALID,22.3551,VALID,157,VALID,0.589063,
2011-11-15, 01:59:05,VALID,998.67,VALID,0,VALID,94.6454,VALID,0.104696,VALID,22.3551,VALID,157,VALID,0.731641,
2011-11-15, 02:00:05,VALID,998.665,VALID,0,VALID,94.6607,VALID,0,VALID,22.3356,VALID,157,VALID,0.610937,
2011-11-15, 02:01:05,VALID,998.643,VALID,0,VALID,94.6683,VALID,0,VALID,22.3356,VALID,157,VALID,0.395312,
2011-11-15, 02:02:05,VALID,998.617,VALID,0,VALID,94.6607,VALID,0,VALID,22.3551,VALID,157,VALID,0.355078,
2011-11-15, 02:03:05,VALID,998.605,VALID,0,VALID,94.6454,VALID,0,VALID,22.3746,VALID,157,VALID,0.494141,
2011-11-15, 02:04:05,VALID,998.593,VALID,0,VALID,94.6454,VALID,0,VALID,22.3746,VALID,157,VALID,0.49375,
2011-11-15, 02:05:05,VALID,998.555,VALID,0,VALID,94.6378,VALID,0,VALID,22.3941,VALID,79,VALID,0.576563,
2011-11-15, 02:06:05,VALID,998.534,VALID,0,VALID,94.6149,VALID,0,VALID,22.4331,VALID,79,VALID,0.603516,
2011-11-15, 02:07:05,VALID,998.519,VALID,0,VALID,94.6531,VALID,0,VALID,22.3729,VALID,79,VALID,0.629687,
2011-11-15, 02:08:05,VALID,998.507,VALID,0,VALID,94.6226,VALID,0,VALID,22.3551,VALID,77,VALID,0.708984,
2011-11-15, 02:09:05,VALID,998.477,VALID,0,VALID,94.6531,VALID,0,VALID,22.2966,VALID,54,VALID,0.785937,
2011-11-15, 02:10:05,VALID,998.464,VALID,0,VALID,94.6836,VALID,0,VALID,22.2381,VALID,48,VALID,0.799609,
2011-11-15, 02:11:05,VALID,998.43,VALID,0,VALID,94.7065,VALID,0,VALID,22.199,VALID,38,VALID,0.946875,
2011-11-15, 02:12:05,VALID,998.423,VALID,0,VALID,94.6988,VALID,0,VALID,22.1194,VALID,38,VALID,0.81875,
2011-11-15, 02:13:05,VALID,998.432,VALID,0,VALID,94.7141,VALID,0,VALID,22.1015,VALID,33,VALID,1.08945,
2011-11-15, 02:14:05,VALID,998.403,VALID,0,VALID,94.7141,VALID,0.104696,VALID,22.1015,VALID,33,VALID,0.956641,
2011-11-15, 02:15:05,VALID,998.387,VALID,0,VALID,94.7065,VALID,0,VALID,22.082,VALID,33,VALID,0.985547,
2011-11-15, 02:16:05,VALID,998.377,VALID,0,VALID,94.7141,VALID,0,VALID,22.082,VALID,33,VALID,0.975781,
2011-11-15, 02:17:05,VALID,998.36,VALID,0,VALID,94.7141,VALID,0,VALID,22.082,VALID,33,VALID,0.920313,
2011-11-15, 02:18:05,VALID,998.331,VALID,0,VALID,94.7065,VALID,0,VALID,22.0803,VALID,33,VALID,0.988672,
2011-11-15, 02:19:05,VALID,998.322,VALID,0,VALID,94.6988,VALID,0,VALID,22.1405,VALID,33,VALID,0.86875,
2011-11-15, 02:20:05,VALID,998.322,VALID,0,VALID,94.6988,VALID,0,VALID,22.16,VALID,33,VALID,0.592188,
2011-11-15, 02:21:05,VALID,998.313,VALID,0,VALID,94.676,VALID,0,VALID,22.1405,VALID,33,VALID,0.542188,
2011-11-15, 02:22:05,VALID,998.316,VALID,0,VALID,94.676,VALID,0.104696,VALID,22.16,VALID,33,VALID,0.653516,
2011-11-15, 02:23:05,VALID,998.3,VALID,0,VALID,94.6607,VALID,0,VALID,22.1617,VALID,33,VALID,0.672266,
2011-11-15, 02:24:05,VALID,998.347,VALID,0,VALID,94.6836,VALID,0,VALID,22.1617,VALID,33,VALID,0.371094,
2011-11-15, 02:25:05,VALID,998.352,VALID,0,VALID,94.6683,VALID,0,VALID,22.1617,VALID,33,VALID,0.433594,
2011-11-15, 02:26:05,VALID,998.364,VALID,0,VALID,94.6836,VALID,0,VALID,22.1422,VALID,48,VALID,0.780859,
2011-11-15, 02:27:05,VALID,998.384,VALID,0,VALID,94.676,VALID,0,VALID,22.1227,VALID,63,VALID,0.670703,
2011-11-15, 02:28:05,VALID,998.398,VALID,0,VALID,94.6607,VALID,0,VALID,22.1227,VALID,71,VALID,0.7125,
2011-11-15, 02:29:05,VALID,998.389,VALID,0,VALID,94.6683,VALID,0,VALID,22.1422,VALID,85,VALID,0.722656,
2011-11-15, 02:30:05,VALID,998.378,VALID,0,VALID,94.676,VALID,0,VALID,22.1617,VALID,85,VALID,0.675,
2011-11-15, 02:31:05,VALID,998.409,VALID,0,VALID,94.6912,VALID,0,VALID,22.1617,VALID,85,VALID,0.354688,
2011-11-15, 02:32:05,VALID,998.427,VALID,0,VALID,94.6836,VALID,0,VALID,22.1422,VALID,85,VALID,0.4625,
2011-11-15, 02:33:05,VALID,998.44,VALID,0,VALID,94.676,VALID,0,VALID,22.082,VALID,31,VALID,0.794141,
2011-11-15, 02:34:05,VALID,998.415,VALID,0,VALID,94.6912,VALID,0,VALID,22.121,VALID,16,VALID,0.847266,
2011-11-15, 02:35:05,VALID,998.454,VALID,0,VALID,94.6607,VALID,0,VALID,22.1422,VALID,359,VALID,0.860937,
2011-11-15, 02:36:05,VALID,998.47,VALID,0,VALID,94.676,VALID,0,VALID,22.1617,VALID,353,VALID,0.731641,
2011-11-15, 02:37:05,VALID,998.49,VALID,0,VALID,94.6836,VALID,0,VALID,22.1422,VALID,353,VALID,0.526953,
2011-11-15, 02:38:05,VALID,998.494,VALID,0,VALID,94.6836,VALID,0,VALID,22.1405,VALID,353,VALID,0.549219,
2011-11-15, 02:39:05,VALID,998.53,VALID,0,VALID,94.6836,VALID,0,VALID,22.16,VALID,353,VALID,0.726172,
2011-11-15, 02:40:05,VALID,998.529,VALID,0,VALID,94.6454,VALID,0,VALID,22.1779,VALID,353,VALID,0.698438,
2011-11-15, 02:41:05,VALID,998.536,VALID,0,VALID,94.6454,VALID,0,VALID,22.2576,VALID,353,VALID,0.671875,
2011-11-15, 02:42:05,VALID,998.55,VALID,0,VALID,94.6226,VALID,0,VALID,22.3161,VALID,353,VALID,0.730078,
2011-11-15, 02:43:05,VALID,998.539,VALID,0,VALID,94.5997,VALID,0,VALID,22.3356,VALID,353,VALID,0.675781,
2011-11-15, 02:44:05,VALID,998.54,VALID,0,VALID,94.6302,VALID,0,VALID,22.3339,VALID,41,VALID,0.779297,
2011-11-15, 02:45:05,VALID,998.536,VALID,0,VALID,94.6378,VALID,0,VALID,22.3356,VALID,54,VALID,0.805078,
2011-11-15, 02:46:05,VALID,998.517,VALID,0,VALID,94.6683,VALID,0,VALID,22.2966,VALID,54,VALID,0.917578,
2011-11-15, 02:47:05,VALID,998.53,VALID,0,VALID,94.6683,VALID,0,VALID,22.2771,VALID,54,VALID,0.877734,
2011-11-15, 02:48:05,VALID,998.495,VALID,0,VALID,94.6836,VALID,0,VALID,22.2381,VALID,54,VALID,0.726172,
2011-11-15, 02:49:05,VALID,998.499,VALID,0,VALID,94.6988,VALID,0,VALID,22.199,VALID,54,VALID,0.5625,
2011-11-15, 02:50:05,VALID,998.492,VALID,0,VALID,94.7217,VALID,0,VALID,22.1584,VALID,54,VALID,0.623047,
2011-11-15, 02:51:05,VALID,998.48,VALID,0,VALID,94.6988,VALID,0,VALID,22.1795,VALID,54,VALID,0.659766,
2011-11-15, 02:52:05,VALID,998.474,VALID,0,VALID,94.7065,VALID,0,VALID,22.1405,VALID,53,VALID,0.60625,
2011-11-15, 02:53:05,VALID,998.497,VALID,0,VALID,94.6912,VALID,0,VALID,22.1389,VALID,53,VALID,0.532422,
2011-11-15, 02:54:05,VALID,998.48,VALID,0,VALID,94.7065,VALID,0,VALID,22.16,VALID,53,VALID,0.499219,
2011-11-15, 02:55:05,VALID,998.482,VALID,0,VALID,94.7065,VALID,0,VALID,22.1405,VALID,53,VALID,0.433203,
2011-11-15, 02:56:05,VALID,998.505,VALID,0,VALID,94.6912,VALID,0,VALID,22.1405,VALID,28,VALID,0.776563,
2011-11-15, 02:57:05,VALID,998.5,VALID,0,VALID,94.6912,VALID,0.104696,VALID,22.1405,VALID,27,VALID,0.589063,
2011-11-15, 02:58:05,VALID,998.498,VALID,0,VALID,94.6988,VALID,0,VALID,22.1795,VALID,27,VALID,0.0582031,
2011-11-15, 02:59:05,VALID,998.496,VALID,0,VALID,94.6912,VALID,0,VALID,22.1795,VALID,27,VALID,0,
2011-11-15, 03:00:05,VALID,998.541,VALID,0,VALID,94.6836,VALID,0,VALID,22.1389,VALID,27,VALID,0.0824219,
2011-11-15, 03:01:05,VALID,998.552,VALID,0,VALID,94.6836,VALID,0,VALID,22.1405,VALID,27,VALID,0.491406,
2011-11-15, 03:02:05,VALID,998.568,VALID,0,VALID,94.6836,VALID,0,VALID,22.1389,VALID,27,VALID,0.501953,
2011-11-15, 03:03:05,VALID,998.58,VALID,0,VALID,94.6607,VALID,0,VALID,22.199,VALID,27,VALID,0.471875,
2011-11-15, 03:04:05,VALID,998.632,VALID,0,VALID,94.6683,VALID,0,VALID,22.2381,VALID,27,VALID,0.512109,
2011-11-15, 03:05:05,VALID,998.632,VALID,0,VALID,94.6683,VALID,0,VALID,22.2186,VALID,27,VALID,0.477344,
2011-11-15, 03:06:05,VALID,998.626,VALID,0,VALID,94.6607,VALID,0,VALID,22.199,VALID,27,VALID,0.519531,
2011-11-15, 03:07:05,VALID,998.635,VALID,0,VALID,94.676,VALID,0,VALID,22.1974,VALID,28,VALID,0.659766,
2011-11-15, 03:08:05,VALID,998.625,VALID,0,VALID,94.676,VALID,0,VALID,22.1974,VALID,33,VALID,0.7,
2011-11-15, 03:09:05,VALID,998.602,VALID,0,VALID,94.6607,VALID,0,VALID,22.2381,VALID,64,VALID,0.707812,
2011-11-15, 03:10:05,VALID,998.65,VALID,0,VALID,94.6531,VALID,0,VALID,22.2576,VALID,66,VALID,0.649609,
2011-11-15, 03:11:05,VALID,998.656,VALID,0,VALID,94.6836,VALID,0,VALID,22.199,VALID,63,VALID,0.869141,
2011-11-15, 03:12:05,VALID,998.671,VALID,0,VALID,94.6836,VALID,0,VALID,22.199,VALID,63,VALID,0.853125,
2011-11-15, 03:13:05,VALID,998.657,VALID,0,VALID,94.6912,VALID,0,VALID,22.16,VALID,63,VALID,0.784375,
2011-11-15, 03:14:05,VALID,998.672,VALID,0,VALID,94.7065,VALID,0,VALID,22.16,VALID,63,VALID,0.663672,
2011-11-15, 03:15:05,VALID,998.654,VALID,0,VALID,94.6912,VALID,0,VALID,22.1795,VALID,63,VALID,0.571875,
2011-11-15, 03:16:05,VALID,998.691,VALID,0,VALID,94.6912,VALID,0,VALID,22.1405,VALID,63,VALID,0.269141,
2011-11-15, 03:17:05,VALID,998.681,VALID,0,VALID,94.7217,VALID,0,VALID,22.121,VALID,70,VALID,0.3375,
2011-11-15, 03:18:05,VALID,998.657,VALID,0,VALID,94.7217,VALID,0.104696,VALID,22.1405,VALID,90,VALID,0,
2011-11-15, 03:19:05,VALID,998.678,VALID,0,VALID,94.7065,VALID,0,VALID,22.121,VALID,90,VALID,0,
2011-11-15, 03:20:05,VALID,998.671,VALID,0,VALID,94.7065,VALID,0,VALID,22.082,VALID,90,VALID,0,
2011-11-15, 03:21:05,VALID,998.641,VALID,0,VALID,94.7217,VALID,0,VALID,22.082,VALID,90,VALID,0,
2011-11-15, 03:22:05,VALID,998.626,VALID,0,VALID,94.6912,VALID,0,VALID,22.082,VALID,90,VALID,0,
2011-11-15, 03:23:05,VALID,998.633,VALID,0,VALID,94.6988,VALID,0,VALID,22.121,VALID,90,VALID,0,
2011-11-15, 03:24:05,VALID,998.638,VALID,0,VALID,94.7065,VALID,0,VALID,22.1405,VALID,90,VALID,0,
2011-11-15, 03:25:05,VALID,998.618,VALID,0,VALID,94.7065,VALID,0,VALID,22.16,VALID,90,VALID,0,
2011-11-15, 03:26:05,VALID,998.627,VALID,0,VALID,94.6836,VALID,0,VALID,22.1405,VALID,24,VALID,0.585938,
2011-11-15, 03:27:05,VALID,998.679,VALID,0,VALID,94.7065,VALID,0.104696,VALID,22.082,VALID,24,VALID,0.394922,
2011-11-15, 03:28:05,VALID,998.683,VALID,0,VALID,94.7141,VALID,0,VALID,22.043,VALID,24,VALID,0.443359,
2011-11-15, 03:29:05,VALID,998.652,VALID,0,VALID,94.7217,VALID,0,VALID,22.043,VALID,24,VALID,0.314453,
2011-11-15, 03:30:05,VALID,998.666,VALID,0,VALID,94.7294,VALID,0,VALID,22.0235,VALID,24,VALID,0.237109,
2011-11-15, 03:31:05,VALID,998.675,VALID,0,VALID,94.7294,VALID,0,VALID,22.004,VALID,24,VALID,0.647656,
2011-11-15, 03:32:05,VALID,998.674,VALID,0,VALID,94.7141,VALID,0,VALID,22.0235,VALID,24,VALID,0.561328,
2011-11-15, 03:33:05,VALID,998.684,VALID,0,VALID,94.7141,VALID,0.104696,VALID,22.0218,VALID,30,VALID,0.662891,
2011-11-15, 03:34:05,VALID,998.687,VALID,0,VALID,94.6912,VALID,0.104696,VALID,22.0218,VALID,30,VALID,0.675,
2011-11-15, 03:35:05,VALID,998.712,VALID,0,VALID,94.676,VALID,0,VALID,22.1194,VALID,50,VALID,0.777734,
2011-11-15, 03:36:05,VALID,998.737,VALID,0,VALID,94.6836,VALID,0.104696,VALID,22.1795,VALID,51,VALID,0.575,
2011-11-15, 03:37:05,VALID,998.74,VALID,0,VALID,94.6988,VALID,0,VALID,22.1194,VALID,51,VALID,0.679297,
2011-11-15, 03:38:05,VALID,998.758,VALID,0,VALID,94.7065,VALID,0,VALID,22.043,VALID,51,VALID,0.514453,
2011-11-15, 03:39:05,VALID,998.751,VALID,0,VALID,94.7141,VALID,0,VALID,22.0235,VALID,51,VALID,0.550781,
2011-11-15, 03:40:05,VALID,998.779,VALID,0,VALID,94.7294,VALID,0,VALID,22.004,VALID,51,VALID,0.327344,
2011-11-15, 03:41:05,VALID,998.788,VALID,0,VALID,94.7065,VALID,0,VALID,22.0235,VALID,51,VALID,0.447656,
2011-11-15, 03:42:05,VALID,998.756,VALID,0,VALID,94.7294,VALID,0,VALID,21.9845,VALID,51,VALID,0.480078,
2011-11-15, 03:43:05,VALID,998.774,VALID,0,VALID,94.7217,VALID,0,VALID,21.965,VALID,51,VALID,0.495313,
2011-11-15, 03:44:05,VALID,998.765,VALID,0,VALID,94.7294,VALID,0,VALID,21.965,VALID,49,VALID,0.655859,
2011-11-15, 03:45:05,VALID,998.77,VALID,0,VALID,94.6988,VALID,0,VALID,22.0235,VALID,52,VALID,0.846094,
2011-11-15, 03:46:05,VALID,998.799,VALID,0,VALID,94.6912,VALID,0,VALID,22.1405,VALID,59,VALID,0.732813,
2011-11-15, 03:47:05,VALID,998.804,VALID,0,VALID,94.676,VALID,0,VALID,22.16,VALID,59,VALID,0.559375,
2011-11-15, 03:48:05,VALID,998.819,VALID,0,VALID,94.6607,VALID,0,VALID,22.199,VALID,59,VALID,0.480859,